Date String (YYYY-MM-DD hh:mm:ss) UTC,Instrument flags,Ambient pressure (hPa),Sample flow (lpm),Bypass flow (lpm),Sample temperature (°C),Ambient temperature (°C),ASC tube jacket temperature (°C),LED temperature (°C),Box temperature (°C),Sample RH (%),Span deviation,Mass concentration (μg/m³),Mass concentration (μg/m³),Mass concentration (μg/m³)
DateTimeUTC,F1_M11,P_M11,Q1_M11,Q2_M11,T1_M11,T2_M11,T3_M11,T4_M11,T5_M11,U1_M11,ZSPAN_M11,X2_M11,X0_M11,X1_M11
2023-01-12 14:00:00,,0833.1,5.01,0.00,22.5,21.8,00.0,31.2,24.3,16.3,-000.5,0014.94,0021.98,0014.67
2023-01-12 14:01:00,,0833.1,4.99,0.00,22.5,21.5,00.0,31.2,24.3,16.3,-000.5,0014.95,0021.94,0014.68
2023-01-12 14:02:00,,0833.1,5.01,0.00,22.5,21.3,00.0,31.3,24.2,16.3,-000.4,0014.99,0021.89,0014.73
2023-01-12 14:03:00,,0833.2,5.00,0.00,22.4,21.2,00.0,31.3,24.2,16.2,-000.4,0015.03,0021.92,0014.78
2023-01-12 14:04:00,,0833.1,5.01,0.00,22.4,21.0,00.0,31.3,24.2,16.1,-000.5,0015.05,0021.93,0014.82
2023-01-12 14:05:00,,0833.2,4.99,0.00,22.4,21.0,00.0,31.3,24.1,16.2,-000.5,0015.10,0022.00,0014.87
2023-01-12 14:06:00,,0833.2,5.00,0.00,22.4,20.9,00.0,31.3,24.1,16.2,-000.5,0015.15,0022.16,0014.92
2023-01-12 14:07:00,,0833.1,5.00,0.00,22.4,20.8,00.0,31.3,24.1,16.3,-000.5,0015.19,0022.21,0014.95
2023-01-12 14:08:00,,0833.2,5.01,0.00,22.3,20.8,00.0,31.3,24.1,16.3,-000.7,0015.21,0022.29,0014.99
2023-01-12 14:09:00,,0833.1,5.00,0.00,22.3,20.8,00.0,31.3,24.0,16.3,-000.7,0015.23,0022.62,0015.00
2023-01-12 14:10:00,,0833.2,5.00,0.00,22.3,20.9,00.0,31.2,24.0,16.4,-000.7,0015.23,0022.60,0015.00
2023-01-12 14:11:00,,0833.3,4.99,0.00,22.3,20.8,00.0,31.2,24.0,16.4,-000.6,0015.26,0022.65,0015.02
2023-01-12 14:12:00,,0833.3,4.99,0.00,22.3,20.8,00.0,31.2,24.0,16.3,-000.5,0015.19,0022.53,0014.95
2023-01-12 14:13:00,,0833.3,5.00,0.00,22.3,20.8,00.0,31.2,23.9,16.3,-000.6,0015.09,0022.38,0014.85
2023-01-12 14:14:00,,0833.3,5.01,0.00,22.2,20.8,00.0,31.2,23.9,16.3,-000.5,0015.03,0022.26,0014.78
2023-01-12 14:15:00,,0833.2,5.01,0.00,22.3,21.3,00.0,31.2,24.1,16.4,-000.7,0014.98,0022.18,0014.72
2023-01-12 14:16:00,,0833.3,4.99,0.00,22.4,22.2,00.0,31.1,24.3,16.3,-000.6,0014.95,0022.18,0014.69
2023-01-12 14:17:00,,0833.3,5.00,0.00,22.5,22.9,00.0,31.2,24.5,16.3,-000.5,0014.91,0022.12,0014.66
2023-01-12 14:18:00,,0833.3,5.00,0.00,22.5,22.7,00.0,31.2,24.5,16.2,-000.5,0014.85,0022.00,0014.61
2023-01-12 14:19:00,,0833.3,5.01,0.00,22.5,22.3,00.0,31.3,24.4,16.2,-000.4,0014.84,0021.99,0014.58
2023-01-12 14:20:00,,0833.2,5.01,0.00,22.5,21.9,00.0,31.3,24.4,16.2,-000.2,0014.81,0021.69,0014.56
2023-01-12 14:21:00,,0833.2,4.99,0.00,22.5,21.7,00.0,31.3,24.3,16.2,-000.2,0014.79,0021.91,0014.54
2023-01-12 14:22:00,,0833.2,5.02,0.00,22.5,21.5,00.0,31.3,24.3,16.2,-000.3,0014.73,0021.83,0014.47
2023-01-12 14:23:00,,0833.2,5.01,0.00,22.5,21.3,00.0,31.3,24.3,16.2,-000.4,0014.69,0021.79,0014.43
2023-01-12 14:24:00,,0833.2,5.00,0.00,22.5,21.2,00.0,31.3,24.3,16.2,-000.4,0014.69,0021.82,0014.41
2023-01-12 14:25:00,,0833.3,5.00,0.00,22.5,21.1,00.0,31.3,24.2,16.3,-000.4,0014.63,0021.78,0014.36
2023-01-12 14:26:00,,0833.3,4.99,0.00,22.4,21.0,00.0,31.3,24.2,16.4,-000.2,0014.58,0021.70,0014.32
2023-01-12 14:27:00,,0833.2,5.00,0.00,22.4,21.0,00.0,31.3,24.2,16.5,-000.2,0014.51,0021.54,0014.25
2023-01-12 14:28:00,,0833.3,5.00,0.00,22.4,21.0,00.0,31.3,24.1,16.5,-000.4,0014.42,0021.34,0014.16
2023-01-12 14:29:00,,0833.4,5.00,0.00,22.4,21.0,00.0,31.3,24.1,16.5,-000.6,0014.25,0021.05,0014.01
2023-01-12 14:30:00,,0833.4,5.00,0.00,22.4,21.0,00.0,31.3,24.1,16.8,-000.6,0014.02,0020.71,0013.80
2023-01-12 14:31:00,,0833.4,5.00,0.00,22.4,20.9,00.0,31.3,24.0,17.9,-000.7,0013.74,0020.17,0013.54
2023-01-12 14:32:00,,0833.4,5.00,0.00,22.3,20.8,00.0,31.3,24.1,17.2,-000.8,0013.49,0019.56,0013.30
2023-01-12 14:33:00,,0833.5,5.00,0.00,22.3,20.8,00.0,31.3,24.0,17.1,-000.7,0013.33,0019.28,0013.15
2023-01-12 14:34:00,,0833.5,5.00,0.00,22.3,20.8,00.0,31.3,24.0,17.2,-000.7,0013.19,0019.05,0013.02
2023-01-12 14:35:00,,0833.5,5.00,0.00,22.3,20.8,00.0,31.2,24.0,17.3,-000.7,0013.04,0018.84,0012.86
2023-01-12 14:36:00,,0833.4,5.02,0.00,22.3,21.6,00.0,31.2,24.2,17.4,-000.8,0012.92,0018.62,0012.75
2023-01-12 14:37:00,,0833.4,4.99,0.00,22.5,22.6,00.0,31.2,24.4,17.4,-000.9,0012.81,0018.48,0012.63
2023-01-12 14:38:00,,0833.4,5.00,0.00,22.6,23.1,00.0,31.2,24.6,17.4,-000.8,0012.70,0018.27,0012.52
2023-01-12 14:39:00,,0833.4,4.99,0.00,22.6,22.7,00.0,31.3,24.6,17.4,-000.8,0012.63,0018.18,0012.44
2023-01-12 14:40:00,,0833.4,5.00,0.00,22.6,22.3,00.0,31.3,24.5,17.5,-000.7,0012.62,0018.29,0012.44
2023-01-12 14:41:00,,0833.4,5.00,0.00,22.6,22.0,00.0,31.4,24.5,17.6,-000.6,0012.66,0018.34,0012.48
2023-01-12 14:42:00,,0833.4,5.01,0.00,22.6,21.7,00.0,31.4,24.4,17.6,-000.5,0012.75,0018.46,0012.56
2023-01-12 14:43:00,,0833.4,5.00,0.00,22.6,21.5,00.0,31.4,24.3,17.7,-000.4,0012.79,0018.53,0012.61
2023-01-12 14:44:00,,0833.5,5.01,0.00,22.6,21.3,00.0,31.4,24.3,17.8,-000.5,0012.80,0018.57,0012.61
2023-01-12 14:45:00,,0833.5,4.99,0.00,22.6,21.2,00.0,31.4,24.3,17.8,-000.5,0012.83,0018.65,0012.62
2023-01-12 14:46:00,,0833.4,5.01,0.00,22.5,21.1,00.0,31.4,24.3,17.9,-000.5,0012.82,0018.58,0012.61
2023-01-12 14:47:00,,0833.4,5.00,0.00,22.5,21.1,00.0,31.4,24.2,18.0,-000.5,0012.77,0018.51,0012.58
2023-01-12 14:48:00,,0833.5,5.01,0.00,22.5,21.1,00.0,31.4,24.2,18.1,-000.5,0012.72,0018.40,0012.54
2023-01-12 14:49:00,,0833.4,5.01,0.00,22.5,21.0,00.0,31.4,24.2,18.1,-000.6,0012.66,0018.32,0012.50
2023-01-12 14:50:00,,0833.4,4.99,0.00,22.4,21.0,00.0,31.4,24.1,18.2,-000.6,0012.55,0018.13,0012.38
2023-01-12 14:51:00,,0833.5,5.00,0.00,22.4,21.0,00.0,31.4,24.1,18.2,-000.5,0012.42,0017.80,0012.26
2023-01-12 14:52:00,,0833.3,5.00,0.00,22.4,20.9,00.0,31.4,24.1,18.3,-000.5,0012.37,0017.74,0012.20
2023-01-12 14:53:00,,0833.3,5.00,0.00,22.4,21.0,00.0,31.4,24.1,18.5,-000.4,0012.32,0017.67,0012.14
2023-01-12 14:54:00,,0833.4,5.00,0.00,22.4,21.0,00.0,31.3,24.1,18.6,-000.3,0012.29,0017.62,0012.11
2023-01-12 14:55:00,,0833.5,5.00,0.00,22.4,21.1,00.0,31.3,24.1,18.7,-000.2,0012.22,0017.46,0012.04
2023-01-12 14:56:00,,0833.5,5.00,0.00,22.4,21.1,00.0,31.3,24.1,18.8,-000.3,0012.10,0017.26,0011.94
2023-01-12 14:57:00,,0833.3,5.00,0.00,22.4,21.0,00.0,31.3,24.1,19.1,-000.3,0012.04,0017.18,0011.88
2023-01-12 14:58:00,,0833.3,5.00,0.00,22.4,21.1,00.0,31.3,24.1,19.3,-000.4,0012.00,0017.14,0011.85
2023-01-12 14:59:00,,0833.2,4.99,0.00,22.4,21.1,00.0,31.3,24.1,19.3,-000.4,0011.95,0017.06,0011.80
